Location: Warszawa
(52.2500°N, 21.0000°E)
Time: 00:08:38
(UTC+01:00)

A-11 Canister half - Pass Details

Date: 17 February 2023
Orbit: 1526 x 1682 km, 47.3° (Epoch: 22 March)

Event Time Altitude Azimuth Distance (km) Brightness Sun altitude
Exits shadow 01:06:47 18° 97° (E) 3,078 10.6 -47.0°
Drops below altitude 10° 01:09:24 10° 84° (E) 3,697 11.2 -46.8°
Sets 01:12:55 0° 74° (ENE) 4,684 12.0 -46.6°
